Weerawila Airport

Jump to: basic info | weather | frequencies | runways | comments

Related pages: nearby airports | nearby navaids | notams | map

Basic information (top)

Codes: WRZ VCCW
Location: lon 6.254490, lat 81.235199, elev 50 ft / 15 m msl
Status: small_airport
Scheduled airline service: yes
Links: Wikipedia Mobile

Weather (top)

Current conditions for Mattala Rajapaksa International Airport 7nm (13km) WNW (rec'd 2015/05/04 02:10Z):

VCRI 040210Z VRB02KT 9999 FEW017 27/23 Q1010 NOSIG

Airport forecast for Bandaranaike International Colombo Airport 98nm (181km) NW (rec'd 2015/04/26 12:00Z):

TAF VCBI 260940Z 2612/2718 24008KT 9999 SCT016 TX32/2708Z TN24/2700Z PROB40 
      TEMPO 2612/2620 8000 TSRA/SHRA SCT010 BKN016 SCT018CB 
      BECMG 2616/2618 15005KT 
      BECMG 2704/2706 25008KT

Frequencies (top)

Verify before use: may be inaccurate or out of date.

TWR: 118.1 MHz (TWR)

Runways (top)

07/25: 4,000 x 93 ft (1,219 x 28 m) — paved — not lighted

Latest comments (top)

No comments yet for Weerawila Airport

More... (top)

See also NOTAMs and nearby airports and navaids, or visit the Weerawila Airport page at the main OurAirports website..